User: anonymous   Login
Location: Joplin
(37.0842°N, 94.5131°W)
Time: 12:00:46
(UTC-05:00)
Language:

Envisat - Orbit

View from above orbital plane
View from above orbital plane
View from above satellite
View from above satellite

Ground track
Ground track

The orbit data is extracted from the following two-line orbital elements,

1 27386U 02009A   21292.99580090  .00000061  00000-0  33618-4 0  9995
2 27386  98.1600 280.7547 0001216  90.4004 335.3286 14.38048345 28978
Epoch (UTC): 19 October 2021 23:53:57
Eccentricity: 0.0001216
inclination: 98.1600°
perigee height: 764 km
apogee height: 766 km
right ascension of ascending node: 280.7547°
argument of perigee: 90.4004°
revolutions per day: 14.38048345
mean anomaly at epoch: 335.3286°
orbit number at epoch: 2897

The dashed part of the orbit path shows where the satellite is in the earth's shadow,  

DLR